"Pseudo-MPEC" for C11ECF5

Created 2025 Feb 27 12:31:03 UT using Find_Orb

Click here for an explanation of pseudo-MPECs

 
 Astrometry: 
     C11ECF5* C2025 02 04.23586806 49 10.812+41 21 45.22   ~248H 22.35GVNEOCPV00
     C11ECF5  C2025 02 04.24710906 49 16.759+41 22 25.61   ~248H 22.57GVNEOCPV00
     C11ECF5  C2025 02 04.25272706 49 19.722+41 22 45.30   ~248H 22.49GVNEOCPV00
     C11ECF5 mC2025 02 04.32221906 49 57.200+41 26 21.00   ~248V       VNEOCPV00
     C11ECF5 mC2025 02 04.32278306 49 57.600+41 26 21.90   ~248V       VNEOCPV00
     C11ECF5 mC2025 02 04.32335106 49 57.850+41 26 24.10   ~248V 21.91GVNEOCPV00
     C11ECF5 mC2025 02 04.32391906 49 58.220+41 26 25.30   ~248V 22.50GVNEOCPV00
     C11ECF5 mC2025 02 05.24129407 00 07.682+42 14 48.80   ~256H 22.29GVNEOCPV00
     C11ECF5 mC2025 02 05.24226407 00 08.078+42 14 51.11   ~256H 22.39GVNEOCPV00
     C11ECF5 mC2025 02 05.24323407 00 08.435+42 14 53.63   ~256H 22.44GVNEOCPV00
     C11ECF5 mC2025 02 05.24420407 00 08.845+42 14 56.33   ~256H 22.04GVNEOCPV00

Station data:
(V00) Kitt Peak-Bok  (N31.963125 W111.600190)  US/Arizona.  Observers T. A.
   Pruyne, B. M. Africano, E. J. Christensen, G. A. Farneth, D. C. Fuls, A.
   R. Gibbs, A. D. Grauer, H. Gröller, J. A. Johnson, R. A. Kowalski, S. M.
   Larson, G. J. Leonard, D. Rankin, R. L. Seaman, F. C. Shelly, K. W.
   Wierzchoś. 2.25-m reflector + 4x4K mosaic CCD.

Orbital elements:  C11ECF5
   Perihelion 2024 Nov 3.54883 +/- 0.236 TT = 13:10:18 (JD 2460618.04883)
Epoch 2025 Feb  5.0 TT = JDT 2460711.5   Earth MOID: 0.0019   Ve: 0.0835
M  97.99719421 +/- 0.6              (J2000 ecliptic)             AutoNEOCP
n   1.04864594 +/- 0.00465          Peri.  249.95003 +/- 0.9
a   0.95951137 +/- 0.00284          Node   130.20689 +/- 0.10
e   0.1587094 +/- 0.00278           Incl.    4.57211 +/- 0.040
P   0.940/343.293d         H 29.43  G  0.15   U  9.1
q 0.80722780 +/- 0.00505    Q 1.11179494 +/- 0.000694
From 11 observations 2025 Feb. 4-5 (24.2 hr); mean residual 0".23
Residuals in arcseconds: 
250204 V00  .02-  .09-    250204 V00  .47+  .40-    250205 V00  .12+  .16-    
250204 V00  .06+  .03+    250204 V00  .28-  .23+    250205 V00  .20-  .04-    
250204 V00  .04-  .11+    250204 V00  .32+  .13-    250205 V00  .07+  .26+    
250204 V00  .50-  .26+    250205 V00  .01+  .05-    

Ephemerides (geocentric):
Date (UTC) HH   RA             Dec           delta  r     elong  mag " sig PA
---- --------  ------------   ------------  ------ ------ -----  --- --------
2025 02 27 13  08 10 19.120   +43 29 30.55  .09301 1.0547 131.7 26.1  798  84
2025 02 27 14  08 10 23.102   +43 29 11.38  .09315 1.0548 131.7 26.1  799  84
2025 02 27 15  08 10 27.083   +43 28 52.16  .09329 1.0548 131.7 26.1  800  84
2025 02 27 16  08 10 31.063   +43 28 32.90  .09342 1.0549 131.7 26.1  800  84
2025 02 27 17  08 10 35.042   +43 28 13.61  .09356 1.0550 131.6 26.1  801  84
2025 02 27 18  08 10 39.020   +43 27 54.27  .09370 1.0551 131.6 26.1  802  84
2025 02 27 19  08 10 42.997   +43 27 34.89  .09384 1.0552 131.6 26.1  802  84
2025 02 27 20  08 10 46.973   +43 27 15.47  .09397 1.0553 131.6 26.1  803  84
2025 02 27 21  08 10 50.948   +43 26 56.01  .09411 1.0553 131.5 26.1  804  84
2025 02 27 22  08 10 54.923   +43 26 36.51  .09425 1.0554 131.5 26.1  804  84
2025 02 27 23  08 10 58.896   +43 26 16.96  .09439 1.0555 131.5 26.1  805  84
2025 02 28 00  08 11 02.869   +43 25 57.38  .09453 1.0556 131.5 26.1  806  84
2025 02 28 01  08 11 06.841   +43 25 37.76  .09467 1.0557 131.5 26.1  806  84
2025 02 28 02  08 11 10.812   +43 25 18.10  .09480 1.0557 131.4 26.1  807  84
2025 02 28 03  08 11 14.782   +43 24 58.40  .09494 1.0558 131.4 26.1  808  84
2025 02 28 04  08 11 18.752   +43 24 38.66  .09508 1.0559 131.4 26.1  808  84
2025 02 28 05  08 11 22.721   +43 24 18.87  .09522 1.0560 131.4 26.2  809  84
2025 02 28 06  08 11 26.689   +43 23 59.05  .09536 1.0561 131.3 26.2  810  84
2025 02 28 07  08 11 30.657   +43 23 39.19  .09549 1.0562 131.3 26.2  810  84
2025 02 28 08  08 11 34.624   +43 23 19.29  .09563 1.0562 131.3 26.2  811  84
2025 02 28 09  08 11 38.590   +43 22 59.35  .09577 1.0563 131.3 26.2  811  84
2025 02 28 10  08 11 42.556   +43 22 39.38  .09591 1.0564 131.2 26.2  812  84
2025 02 28 11  08 11 46.520   +43 22 19.36  .09605 1.0565 131.2 26.2  813  84
2025 02 28 12  08 11 50.485   +43 21 59.30  .09619 1.0566 131.2 26.2  813  84
2025 02 28 13  08 11 54.449   +43 21 39.21  .09632 1.0566 131.2 26.2  814  84
2025 02 28 14  08 11 58.412   +43 21 19.07  .09646 1.0567 131.2 26.2  815  85
2025 02 28 15  08 12 02.375   +43 20 58.90  .09660 1.0568 131.1 26.2  815  85
2025 02 28 16  08 12 06.337   +43 20 38.69  .09674 1.0569 131.1 26.2  816  85
2025 02 28 17  08 12 10.298   +43 20 18.44  .09688 1.0570 131.1 26.2  817  85
2025 02 28 18  08 12 14.260   +43 19 58.15  .09702 1.0570 131.1 26.2  817  85
2025 02 28 19  08 12 18.220   +43 19 37.82  .09716 1.0571 131.0 26.2  818  85
2025 02 28 20  08 12 22.181   +43 19 17.45  .09729 1.0572 131.0 26.2  818  85
2025 02 28 21  08 12 26.140   +43 18 57.05  .09743 1.0573 131.0 26.2  819  85
2025 02 28 22  08 12 30.100   +43 18 36.61  .09757 1.0574 131.0 26.2  820  85
2025 02 28 23  08 12 34.059   +43 18 16.13  .09771 1.0574 131.0 26.2  820  85
2025 03 01 00  08 12 38.017   +43 17 55.61  .09785 1.0575 130.9 26.2  821  85
2025 03 01 01  08 12 41.976   +43 17 35.05  .09799 1.0576 130.9 26.2  821  85
2025 03 01 02  08 12 45.933   +43 17 14.46  .09813 1.0577 130.9 26.2  822  85
2025 03 01 03  08 12 49.891   +43 16 53.83  .09827 1.0578 130.9 26.2  823  85
2025 03 01 04  08 12 53.848   +43 16 33.16  .09840 1.0578 130.8 26.2  823  85
2025 03 01 05  08 12 57.805   +43 16 12.45  .09854 1.0579 130.8 26.2  824  85
2025 03 01 06  08 13 01.762   +43 15 51.71  .09868 1.0580 130.8 26.2  825  85
2025 03 01 07  08 13 05.718   +43 15 30.93  .09882 1.0581 130.8 26.2  825  85
2025 03 01 08  08 13 09.674   +43 15 10.11  .09896 1.0582 130.7 26.3  826  85
2025 03 01 09  08 13 13.630   +43 14 49.26  .09910 1.0582 130.7 26.3  826  85
2025 03 01 10  08 13 17.585   +43 14 28.36  .09924 1.0583 130.7 26.3  827  85
2025 03 01 11  08 13 21.541   +43 14 07.43  .09938 1.0584 130.7 26.3  828  85
2025 03 01 12  08 13 25.496   +43 13 46.47  .09952 1.0585 130.7 26.3  828  85